Location: ??????
(42.0089°N, 44.3281°E)
Time: 18:17:21
(UTC+00:00)

Okean 1-7 Rocket - Pass Details

Date: 29 May 2022
Orbit: 616 x 648 km, 82.5° (Epoch: 01 July)

Event Time Altitude Azimuth Distance (km) Brightness Sun altitude
Exits shadow 23:22:33 - 145° (SE) 2,488 6.5 -18.3°
Reaches altitude 10° 23:24:06 10° 134° (SE) 1,988 6.1 -18.1°
Maximum altitude 23:27:18 20° 87° (E) 1,441 5.9 -17.8°
Drops below altitude 10° 23:30:30 10° 40° (NE) 1,990 7.5 -17.4°
Sets 23:33:11 0° 24° (NNE) 2,899 8.6 -17.1°
